Regional Weather Roundup
Issued by NWS

Home | Current Version | Previous Version | Graphics & Text | Print | Product List | Glossary Off
Versions: 1 2 3 4 5 6 7 8 9 10 11 12 13 14 15 16 17 18 19 20 21 22 23 24 25 26 27 28 29 30 31 32 33 34 35 36 37 38 39 40 41 42 43 44 45 46 47 48 49 50

000
ASUS43 KLSX 070007
RWRMO

WEATHER SUMMARY FOR MISSOURI
NATIONAL WEATHER SERVICE SPRINGFIELD MO
700 PM CDT FRI MAY 06 2016

NOTE: "FAIR" INDICATES FEW OR NO CLOUDS BELOW 12,000 FEET WITH NO
       SIGNIFICANT WEATHER AND/OR OBSTRUCTIONS TO VISIBILITY.
       CURRENT SKY AND/OR WEATHER CONDITIONS ARE NOT AVAILABLE FOR
       CHILLICOTHE AND FARMINGTON.

MOZ001>031-035>038-043-044-053-054-070100-
...NORTHERN AND WESTERN MISSOURI...

CITY           SKY/WX    TMP DP  RH WIND       PRES   REMARKS
KANSAS CTY INT PTSUNNY   77  50  38 SW14      29.94F
6HR MIN TEMP:  77; 6HR MAX TEMP:  81;

KANSAS C DTWN  SUNNY     80  49  33 S12       29.92F
6HR MIN TEMP:  79; 6HR MAX TEMP:  83;

LEE`S SUMMIT   SUNNY     78  50  37 S13       29.95F
6HR MIN TEMP:  77; 6HR MAX TEMP:  81;

ST JOSEPH      SUNNY     80  49  33 S13       29.91F
6HR MIN TEMP:  80; 6HR MAX TEMP:  84;

CHILLICOTHE      N/A     80  51  36 S8        29.92F
6HR MIN TEMP:  78; 6HR MAX TEMP:  83;

KIRKSVILLE     SUNNY     78  48  34 SW9       29.92F
6HR MIN TEMP:  78; 6HR MAX TEMP:  82;


$$
MOZ066>068-077>081-088>096-101>105-070100-
...SOUTHWEST MISSOURI...

CITY           SKY/WX    TMP DP  RH WIND       PRES   REMARKS
SPRINGFIELD    SUNNY     74  47  38 SW3       30.00F
6HR MIN TEMP:  73; 6HR MAX TEMP:  78;

JOPLIN         SUNNY     74  51  44 S7        29.99F
6HR MIN TEMP:  74; 6HR MAX TEMP:  79;

BRANSON        MOSUNNY   75  45  33 CALM      30.03F

$$
MOZ032>034-039>042-045>050-055>058-069>072-070100-
...CENTRAL MISSOURI...

CITY           SKY/WX    TMP DP  RH WIND       PRES   REMARKS
COLUMBIA       SUNNY     76  49  38 W8        29.96F
6HR MIN TEMP:  75; 6HR MAX TEMP:  80;

JEFFERSON CITY SUNNY     79  48  33 W7        29.95F
6HR MIN TEMP:  74; 6HR MAX TEMP:  81;

ROLLA          SUNNY     74  49  41 W6        29.97F
6HR MIN TEMP:  71; 6HR MAX TEMP:  76;

SEDALIA        SUNNY     76  50  40 SW9       29.98F
6HR MIN TEMP:  76; 6HR MAX TEMP:  80;

WHITEMAN AFB   SUNNY     75  53  45 SW9       29.95F
WARRENSBURG    SUNNY     77  46  33 S8        29.95F
OSAGE BEACH    SUNNY     79  46  31 SW5       29.99S

$$
MOZ051-052-059>065-070100-
...EAST CENTRAL MISSOURI...

CITY           SKY/WX    TMP DP  RH WIND       PRES   REMARKS
ST LOUIS INTL  SUNNY     78  46  32 VRB7G16   29.94F
6HR MIN TEMP:  75; 6HR MAX TEMP:  81;

SPIRIT OF STL  SUNNY     76  49  38 W7        29.93F
6HR MIN TEMP:  73; 6HR MAX TEMP:  79;

ST CHARLES     SUNNY     79  46  31 W10       29.91F
6HR MIN TEMP:  73; 6HR MAX TEMP:  81;


$$
MOZ072>076-082>087-097>100-106>115-070100-
...SOUTH CENTRAL AND SOUTHEAST MISSOURI...

CITY           SKY/WX    TMP DP  RH WIND       PRES   REMARKS
CAPE GIRARDEAU CLEAR     74  44  34 CALM      29.96F
6HR MIN TEMP:  70; 6HR MAX TEMP:  76;

FARMINGTON     CLEAR     75  46  35 NW6       29.98S
6HR MIN TEMP:  70; 6HR MAX TEMP:  77;

POPLAR BLUFF   CLEAR     75  47  36 CALM      29.96F
6HR MIN TEMP:  71; 6HR MAX TEMP:  78;

WEST PLAINS    SUNNY     76  44  32 CALM      30.01F
6HR MIN TEMP:  71; 6HR MAX TEMP:  79;


$$


USA.gov is the U.S. government's official web portal to all federal, state and local government web resources and services.